STARLINK-34588 (64729 NORAD) Tracking and Keplerian Element Data

This shows tracking and keplerian element data for the satellite.

Feedback or suggestion? Click here.




ElementValue
Catalog64729
NameSTARLINK-34588
Epoch Orbit2748
Epoch Day353.83167438
Epoch Year2025
RAAN192.085
Inclination53.1573
Eccentricity9.41E-05
Argument of Perigee128.8481
Mean Anonmoly231.2604
Mean Motion15.30206795
Decay Rate0.00016423
L11 64729U 25144F 25353.83167438 .00016423 00000+0 56527-3 0 9995
L22 64729 53.1573 192.0850 0000941 128.8481 231.2604 15.30206795 27482



Live tracking and technical data element details for STARLINK-34588 (NORAD 64729). STARLINK-34588 can be tracked NOW for your location showing map with azimuth and elevation plus other details from your city location.







IsCatalogInMostPopularTable: catalog: 64729, numindb: 5
Update: records affected: 1



GetName: 64729 STARLINK-34588

Hit Count: updated at: Sun, 08 Feb 2026 08:15:24 GMT